date,time,DOY,Ta_1_1_1,RH_1_1_1,LWin_1_1_1,LWout_1_1_1,SWin_1_1_1,SWout_1_1_1,PPFD_1_1_1,SWC_1_1_1,Ts_1_1_1
[yyyy-mm-dd],[HH:MM],[ddd.ddd],[K],[%],[W+1m-2],[W+1m-2],[W+1m-2],[W+1m-2],[µmol+1m-2s-1],[m+3m-3],[K]
2013-01-17,00:30,17.020,259.10166666666674,80.123333333333306,-3.1656666666666662,-9.9700000000000006,-0.33199999999999991,-0.86799999999999999,4.66666666666666705E-003,-9999.0,279.90999999999991
2013-01-17,01:00,17.041,258.83666666666670,80.040333333333336,-3.3353333333333333,-8.7400000000000002,-0.28666666666666668,-0.93466666666666642,1.13333333333333359E-002,-9999.0,279.90999999999991
2013-01-17,01:30,17.062,258.47733333333338,77.396333333333303,-3.1546666666666665,-9999.0,-0.29733333333333339,-0.92299999999999993,8.33333333333333495E-003,-9999.0,279.90999999999991
2013-01-17,02:00,17.083,258.17433333333332,77.880333333333340,-3.0850000000000000,-9999.0,-0.30999999999999989,-0.85299999999999987,1.56666666666666690E-002,-9999.0,279.90999999999991
2013-01-17,02:30,17.104,258.08200000000005,80.021333333333359,-3.4723333333333337,-9999.0,-0.32633333333333336,-0.82999999999999974,1.10000000000000028E-002,-9999.0,279.90999999999991
2013-01-17,03:00,17.124,258.06500000000000,80.647333333333336,-5.3166666666666673,-9.2650000000000006,-0.12599999999999992,-2.3056666666666668,1.06666666666666680E-002,-9999.0,279.90999999999991
2013-01-17,03:30,17.145,257.54433333333333,76.547333333333341,-6.0316666666666672,-9999.0,0.32633333333333342,-3.2313333333333341,1.00000000000000019E-002,-9999.0,279.90999999999991
2013-01-17,04:00,17.166,257.01500000000004,75.883999999999986,-6.1063333333333345,-9999.0,0.45600000000000002,-3.2970000000000002,7.00000000000000188E-003,-9999.0,279.90999999999991
2013-01-17,04:30,17.187,256.60700000000008,77.367000000000004,-6.1426666666666687,-9999.0,0.49433333333333329,-3.1850000000000001,8.66666666666666627E-003,-9999.0,279.90999999999991
2013-01-17,05:00,17.208,256.28233333333338,78.456333333333319,-5.9133333333333322,-9999.0,0.39833333333333337,-2.9583333333333339,2.99999999999999789E-003,-9999.0,279.90999999999991
2013-01-17,05:30,17.229,256.10100000000000,79.624666666666656,-5.3700000000000001,-9999.0,0.28800000000000003,-2.5433333333333334,1.20000000000000020E-002,-9999.0,279.90999999999991
2013-01-17,06:00,17.249,255.83499999999998,78.150333333333307,-5.9839999999999991,-9999.0,0.48699999999999999,-3.5503333333333340,9.66666666666666716E-003,-9999.0,279.90999999999991
2013-01-17,06:30,17.270,255.22333333333339,76.480333333333348,-5.3643333333333327,-9999.0,0.45766666666666667,-3.4503333333333335,1.16666666666666672E-002,-9999.0,279.90999999999991
2013-01-17,07:00,17.291,254.60166666666666,73.776000000000010,-5.3126666666666660,-9999.0,0.47733333333333333,-3.5910000000000002,1.86666666666666682E-002,-9999.0,279.90999999999991
2013-01-17,07:30,17.312,254.11100000000002,72.838999999999999,-5.2309999999999990,-9999.0,0.69666666666666688,-2.7046666666666668,1.5206666666666666,-9999.0,279.90999999999991
2013-01-17,08:00,17.333,253.83233333333345,72.468333333333320,-5.5169999999999995,-9999.0,6.0243333333333329,18.460333333333335,29.608666666666672,-9999.0,279.90999999999991
2013-01-17,08:30,17.354,253.86666666666667,71.940000000000012,-6.3349999999999991,-9999.0,16.777666666666669,87.755999999999986,122.34300000000000,-9999.0,279.90999999999991
2013-01-17,09:00,17.374,254.27200000000005,71.570000000000007,-3.1663333333333319,-9999.0,22.024999999999995,108.73466666666668,175.30633333333333,-9999.0,279.90999999999991
2013-01-17,09:30,17.395,254.68299999999996,71.519666666666666,-1.7456666666666665,-9999.0,21.322666666666667,93.940000000000012,180.44633333333334,-9999.0,279.90999999999991
2013-01-17,10:00,17.416,254.88966666666667,71.699333333333328,-1.4800000000000004,-9999.0,29.494000000000007,132.96733333333336,254.13133333333334,-9999.0,279.90999999999991
2013-01-17,10:30,17.437,255.29700000000005,70.883000000000010,-1.7310000000000001,-9999.0,35.860999999999997,167.04300000000003,317.36099999999999,-9999.0,279.90999999999991
2013-01-17,11:00,17.458,255.86033333333341,69.093000000000004,-1.9563333333333333,-9999.0,51.120000000000005,250.70766666666665,465.75033333333329,-9999.0,279.90999999999991
2013-01-17,11:30,17.479,256.43833333333339,66.915000000000006,-1.5393333333333332,-9999.0,57.933333333333344,288.21366666666671,530.62000000000012,-9999.0,279.90999999999991
2013-01-17,12:00,17.499,257.04100000000005,63.129000000000012,-1.6539999999999999,-9999.0,66.434333333333342,352.74566666666669,636.03966666666679,-9999.0,279.90999999999991
2013-01-17,12:30,17.520,257.24566666666664,62.485666666666681,-1.5006666666666668,-9999.0,53.646333333333338,272.62300000000005,509.27933333333328,-9999.0,279.90999999999991
2013-01-17,13:00,17.541,257.25833333333338,62.188999999999993,-2.8853333333333335,-9999.0,48.691666666666656,270.73566666666665,510.83766666666662,-9999.0,279.90999999999991
2013-01-17,13:30,17.562,257.42566666666670,59.949999999999982,-2.9030000000000005,-9999.0,54.145666666666656,306.71366666666660,571.06766666666658,-9999.0,279.90999999999991
2013-01-17,14:00,17.583,257.55566666666675,58.261666666666663,-3.4093333333333322,-9999.0,43.100999999999992,242.20500000000010,452.01700000000000,-9999.0,279.90999999999991
2013-01-17,14:30,17.604,257.78866666666664,58.289666666666669,-3.9623333333333335,-9999.0,38.677333333333337,229.61266666666663,421.97566666666665,-9999.0,279.90999999999991
2013-01-17,15:00,17.624,257.91066666666671,57.824333333333342,-5.2610000000000001,-9999.0,28.607333333333326,171.07966666666658,316.98133333333328,-9999.0,279.90999999999991
2013-01-17,15:30,17.645,257.93033333333341,56.217999999999996,-5.6923333333333330,-9999.0,19.651333333333337,118.40566666666669,221.37033333333332,-9999.0,279.90999999999991
2013-01-17,16:00,17.666,257.75833333333338,55.289333333333317,-6.4779999999999998,-9999.0,12.408999999999997,70.343999999999994,132.70733333333334,-9999.0,279.90999999999991
2013-01-17,16:30,17.687,257.58600000000001,57.263666666666694,-7.4746666666666650,-9999.0,9.3443333333333349,44.475666666666669,68.991999999999990,-9999.0,279.90999999999991
2013-01-17,17:00,17.708,257.49633333333333,58.000999999999976,-6.0546666666666686,-9999.0,1.7816666666666667,4.2816666666666645,10.653999999999998,-9999.0,279.90999999999991
2013-01-17,17:30,17.729,257.17833333333334,58.611333333333327,-5.8723333333333327,-9999.0,0.35433333333333333,-2.7586666666666670,0.21900000000000000,-9999.0,279.90999999999991
2013-01-17,18:00,17.749,256.85166666666663,60.353000000000002,-6.1729999999999983,-9999.0,0.46766666666666690,-3.1810000000000000,6.00000000000000099E-003,-9999.0,279.90999999999991
2013-01-17,18:30,17.770,256.56066666666675,61.966000000000001,-6.6893333333333338,-9999.0,0.59066666666666678,-3.5309999999999993,9.00000000000000105E-003,-9999.0,279.90999999999991
2013-01-17,19:00,17.791,256.35133333333340,64.186666666666667,-6.7260000000000000,-9999.0,0.65433333333333343,-3.4810000000000012,8.33333333333333495E-003,-9999.0,279.90999999999991
2013-01-17,19:30,17.812,256.21833333333336,65.838666666666668,-6.7689999999999992,-9999.0,0.66800000000000004,-3.5046666666666675,8.00000000000000017E-003,-9999.0,279.90999999999991
2013-01-17,20:00,17.833,256.07766666666669,67.200333333333333,-6.8153333333333324,-9999.0,0.65133333333333354,-3.4540000000000002,7.33333333333333406E-003,-9999.0,279.90999999999991
2013-01-17,20:30,17.854,255.94466666666668,68.631000000000014,-6.8849999999999998,-9999.0,0.67666666666666664,-3.4279999999999999,7.00000000000000101E-003,-9999.0,279.90999999999991
2013-01-17,21:00,17.874,256.02733333333339,68.861000000000004,-6.5306666666666642,-9999.0,0.69933333333333325,-3.1709999999999998,5.99999999999999926E-003,-9999.0,279.90999999999991
2013-01-17,21:30,17.895,256.07799999999997,69.149666666666661,-6.4603333333333328,-9999.0,0.65633333333333332,-3.2303333333333337,7.00000000000000101E-003,-9999.0,279.90999999999991
2013-01-17,22:00,17.916,256.00766666666669,69.973999999999990,-6.6299999999999999,-9999.0,0.63766666666666660,-3.3146666666666671,8.66666666666666627E-003,-9999.0,279.90999999999991
2013-01-17,22:30,17.937,255.94899999999998,71.034999999999997,-6.5353333333333321,-9999.0,0.62666666666666671,-3.2616666666666672,1.06666666666666680E-002,-9999.0,279.90999999999991
2013-01-17,23:00,17.958,255.85233333333338,72.037333333333336,-6.5739999999999998,-9999.0,0.63166666666666671,-3.2763333333333335,1.00000000000000019E-002,-9999.0,279.90999999999991
2013-01-17,23:30,17.979,255.84100000000004,72.512333333333345,-6.4056666666666651,-9999.0,0.58433333333333337,-3.0893333333333337,1.53333333333333325E-002,-9999.0,279.90999999999991
2013-01-18,00:00,18.000,255.49666666666673,74.131000000000014,-6.7690000000000010,-9999.0,0.49433333333333329,-3.3929999999999998,3.99999999999999922E-003,-9999.0,279.90999999999991
